Vertical_Velocity
2 2 2 3 2 1 1 1 1 2 2 1 1 1 1 2 2 2 3 5 5 4 3 2 1 -0 -1 -1 -0 -0 -1 -1 -1 -1 -0 0 0 0 0 0 -0 -0 -0 -1 -1 -1 -1 -1 -1 -1 -1 -2 -2 -2 -2 -2 -2 -2 -2 -2 -2 -2 -2 -2 -2 -2 -2 -2 -2
2 3 4 3 2 1 1 0 1 1 1 1 1 2 2 2 2 3 4 5 5 4 3 1 -0 -1 -1 -0 -0 -0 -0 -0 -0 0 0 1 1 1 1 0 -0 -0 -0 -0 -0 -1 -1 -1 -1 -1 -1 -2 -1 -2 -2 -2 -1 -1 -2 -2 -2 -2 -2 -2 -2 -2 -2 -2 -2
3 4 4 3 1 0 0 0 1 2 2 2 2 2 2 2 3 4 4 4 4 3 2 -0 -1 -1 -0 -0 0 0 0 -0 0 0 1 1 1 1 1 0 -0 -0 -0 -0 -0 -0 -0 -0 -0 -1 -1 -1 -1 -1 -2 -2 -1 -1 -1 -3 -2 -2 -1 -2 -2 -2 -2 -2 -2
3 3 3 2 1 1 2 2 4 4 4 3 2 2 2 2 3 4 4 3 3 2 0 -0 -1 -1 -0 0 0 0 0 0 0 0 1 1 1 1 1 0 0 -0 -0 0 0 0 -0 -0 -0 -0 -1 -1 -1 -1 -2 -2 -1 -1 -1 -2 -2 -2 -2 -2 -2 -1 -1 -1 -2
3 3 3 3 3 3 4 4 4 4 3 2 2 2 2 2 3 3 3 2 2 1 1 0 -0 -1 -1 0 0 -0 -0 -0 0 0 1 1 1 1 1 1 0 -0 -0 0 0 0 0 0 0 -0 -0 -1 -1 -1 -1 -1 -1 -1 -2 -2 -2 -1 -1 -1 -1 -1 -1 -1 -1
4 4 5 5 4 4 3 3 3 2 1 1 1 1 2 2 3 3 3 2 2 2 2 1 -0 -1 -0 0 0 -0 -0 -0 0 1 1 1 1 1 1 1 0 0 0 0 0 0 0 0 0 -0 -0 -0 -1 -1 -1 -1 -1 -1 -1 -1 -2 -1 -1 -1 -1 -1 -1 -1 -1
4 5 5 4 3 2 2 1 1 1 0 0 1 1 2 3 4 4 3 3 3 3 1 -0 -0 -0 -0 0 0 0 0 1 1 2 2 2 1 1 1 0 0 0 1 0 1 1 1 1 1 0 -0 -0 -0 -1 -1 -1 -0 -1 -1 -1 -2 -1 -1 -1 -1 -1 -1 -1 -1
4 4 4 3 2 2 1 1 1 1 0 0 2 2 3 4 4 4 3 3 2 1 0 0 0 0 1 1 1 1 1 1 2 2 2 2 1 1 1 1 1 1 1 1 1 1 1 1 1 0 -0 -0 -0 -1 -1 -0 -0 -0 -1 -1 -2 -1 -1 -1 -1 -1 -1 -1 -1
3 3 3 3 2 2 1 1 1 1 1 2 3 4 4 4 3 3 2 1 1 1 1 1 1 1 1 1 1 1 1 2 2 2 2 2 1 1 1 1 1 1 1 1 1 1 1 1 1 1 0 0 -0 -0 -0 0 0 -0 -1 -1 -1 -1 -1 -1 -1 -1 -1 -1 -1
3 3 4 4 2 1 1 1 1 1 2 3 3 3 3 2 2 1 1 1 2 2 2 0 0 0 0 0 0 1 1 1 2 2 2 2 1 1 1 1 1 1 1 1 1 1 1 1 1 1 0 0 0 -0 -0 0 0 0 -0 -0 -0 -0 -1 -1 -1 -1 -1 -1 -1
4 5 5 4 3 2 1 1 1 1 2 2 2 1 1 1 1 1 1 2 2 1 0 -0 0 0 0 0 1 1 1 1 1 2 2 1 1 1 1 1 1 1 1 0 1 1 1 1 1 1 0 0 1 0 0 0 0 0 -0 -0 -0 -0 -0 -1 -1 -0 -0 -1 -1
6 6 5 4 3 2 1 1 1 1 2 2 1 0 0 1 1 2 1 1 1 1 0 1 1 1 1 1 1 1 1 1 1 1 1 1 1 0 0 1 1 1 1 0 1 1 1 1 1 1 1 0 1 1 1 0 0 0 0 -0 0 0 0 -1 -0 -0 0 0 0
6 5 4 3 2 0 -0 -0 1 1 2 2 2 1 2 2 2 2 1 1 1 1 1 1 1 1 1 0 1 1 1 1 1 1 1 1 0 0 0 1 1 1 1 1 1 1 2 1 1 1 1 0 1 1 1 0 0 0 0 -0 0 0 0 -0 -0 0 1 1 1
6 4 3 2 0 -0 -1 -0 0 1 2 3 2 2 3 3 2 2 2 2 2 2 1 1 1 1 1 1 1 1 1 1 1 1 1 0 0 0 0 1 1 1 1 1 1 2 1 1 1 1 1 1 0 0 1 1 1 0 0 0 0 0 0 0 0 0 1 1 1
4 3 2 2 1 -0 -0 -0 1 2 3 3 3 3 2 2 1 2 2 3 2 1 1 1 1 1 1 1 2 1 1 1 1 1 1 0 0 0 1 1 1 2 2 2 2 2 1 1 1 1 1 1 0 0 0 1 1 0 0 0 -0 -0 0 0 0 1 1 1 1
2 2 2 2 1 1 1 1 2 3 3 3 3 3 2 1 1 2 3 3 2 1 1 1 1 1 1 2 1 1 1 1 1 1 1 0 0 1 1 2 2 2 2 2 2 2 1 1 1 1 1 0 0 0 0 1 1 0 0 -0 -0 0 0 0 0 0 0 0 1
2 2 2 2 2 2 2 2 3 4 4 4 4 3 2 1 2 2 3 2 2 2 1 1 2 2 2 1 1 1 1 1 1 1 1 1 1 2 2 2 2 2 2 2 2 1 1 0 0 0 1 0 0 0 1 1 0 0 0 0 0 0 0 0 0 0 0 0 0
1 2 3 3 3 4 4 4 4 5 5 5 4 3 3 2 3 3 3 3 2 2 2 2 2 2 2 1 1 2 2 2 2 2 2 2 2 2 2 2 2 2 2 2 2 1 1 0 0 0 0 1 1 1 1 1 0 0 0 0 0 0 0 0 0 0 0 0 -0
2 3 4 4 5 5 6 6 6 6 6 6 5 4 3 3 3 3 3 3 3 3 3 2 2 2 2 2 2 2 3 4 4 3 3 2 2 2 2 2 2 2 2 2 2 1 0 -0 -0 0 0 1 1 1 1 1 0 0 0 0 0 0 0 0 -0 0 0 0 0
2 3 4 5 6 7 7 7 7 7 6 6 5 4 3 2 3 3 3 3 3 3 3 2 2 1 2 2 2 3 3 4 4 3 2 1 2 2 2 1 1 1 1 2 1 1 0 0 -0 0 0 1 1 1 1 1 1 0 0 0 0 0 0 0 0 0 0 0 0
2 3 4 6 8 8 8 8 7 7 6 5 4 3 2 2 3 3 3 4 4 4 3 2 1 2 2 2 3 3 4 4 4 3 2 1 1 2 2 2 1 1 1 1 1 1 0 0 0 0 0 1 1 1 1 1 0 0 0 0 0 0 0 0 0 0 0 1 1
3 4 6 7 7 7 7 7 6 6 4 3 3 2 3 3 3 4 4 5 4 3 2 1 2 2 3 3 3 4 4 4 4 3 2 2 2 2 2 1 1 0 0 0 0 1 1 1 0 0 0 1 1 1 1 1 0 0 0 0 0 0 0 0 0 0 0 0 0
5 6 6 6 6 6 5 5 5 4 3 2 2 2 2 3 3 4 5 4 3 1 1 1 2 3 3 4 4 4 4 4 3 2 2 2 2 1 1 1 1 0 0 0 0 1 1 1 0 0 0 0 1 1 1 1 0 0 0 -0 0 0 0 0 0 0 -0 -0 0
6 5 5 4 4 4 4 4 3 3 3 2 2 2 3 3 4 4 4 3 2 2 2 2 3 3 3 3 3 2 2 2 2 2 2 2 2 1 1 1 1 1 0 0 1 1 1 1 0 0 0 0 0 0 0 1 1 0 0 0 0 0 0 0 -0 -0 -0 -1 -0
4 4 3 3 3 3 4 4 4 4 3 3 3 3 4 4 4 4 3 3 3 2 2 2 3 3 3 2 1 1 2 2 2 2 2 2 2 2 1 1 1 1 1 1 1 1 1 1 0 0 0 0 0 0 0 1 1 1 0 0 0 0 0 0 -0 -1 -1 -1 -1
3 2 2 2 3 4 4 4 5 5 5 5 4 4 4 3 4 4 4 4 3 3 2 2 2 2 2 1 1 1 2 2 3 3 2 2 2 2 2 1 1 1 1 1 1 1 0 0 0 -0 -0 -0 0 0 1 1 1 1 1 0 1 1 1 0 -1 -1 -2 -2 -1
2 1 1 2 4 4 4 5 6 6 5 5 4 3 3 4 4 5 5 4 3 2 2 2 2 1 1 1 2 2 3 3 3 3 3 3 2 2 2 1 1 1 2 2 1 1 0 -0 -0 -0 -0 0 0 0 1 1 1 1 1 0 1 1 1 0 -1 -2 -2 -2 -1
1 1 2 4 4 4 5 7 6 5 4 4 3 4 4 6 6 5 4 4 3 2 1 1 1 1 2 2 2 3 3 4 4 4 3 3 3 2 2 2 2 2 2 2 1 0 -0 -1 -1 -0 -0 0 0 1 1 1 1 0 0 0 1 1 1 -0 -1 -2 -2 -2 -2
2 3 4 4 4 5 6 7 5 4 4 5 5 5 6 6 5 5 4 3 2 1 0 -0 1 2 3 3 3 4 4 4 4 4 4 4 3 3 2 2 2 2 2 2 1 -0 -1 -1 -1 -0 0 0 1 1 1 1 1 1 1 1 1 1 0 -0 -1 -1 -2 -2 -1
4 4 4 4 4 6 6 6 5 6 6 5 5 6 5 5 5 4 4 3 2 1 1 2 4 4 4 3 4 4 4 3 4 4 4 4 4 3 2 2 2 2 2 1 0 -0 -0 -1 -0 0 1 1 1 1 1 1 1 1 1 1 1 0 -0 -1 -1 -1 -1 -1 -1
4 4 4 4 5 6 6 6 6 6 5 4 5 5 5 5 5 5 4 4 3 3 3 5 5 4 4 5 5 4 4 4 5 5 5 5 4 4 3 3 3 2 2 1 0 -0 -0 -0 0 1 1 1 1 1 2 2 2 1 1 1 0 -0 -1 -1 -1 -1 -1 -1 -1
3 3 4 5 5 6 6 6 6 5 4 4 5 5 6 6 6 6 6 6 5 4 4 4 4 4 4 5 4 3 4 5 5 5 5 6 5 4 4 3 3 2 1 0 -0 -0 -0 0 0 1 1 1 2 2 2 2 1 1 1 0 -0 -1 -1 -1 -1 -1 -1 -1 -1
3 4 5 5 5 5 6 6 4 4 4 5 6 6 7 7 7 7 7 5 4 3 2 2 3 4 4 4 3 3 4 4 5 5 6 6 5 4 3 3 2 1 1 -0 -0 -0 0 0 1 1 2 2 2 2 1 1 1 1 0 -0 -1 -1 -1 -1 -1 -1 -1 -1 -1
4 4 5 5 5 5 5 4 4 5 5 6 6 7 7 7 7 6 5 3 3 3 3 4 5 5 4 5 5 5 5 5 6 6 6 5 4 4 3 2 2 1 0 -1 -1 -0 0 0 1 2 2 3 3 2 1 0 1 1 0 -0 -1 -1 -1 -1 -1 -1 -1 -1 -1
5 5 5 4 4 4 4 4 5 5 6 6 6 6 7 6 6 5 5 4 4 4 4 5 5 5 5 6 5 5 5 6 6 5 5 5 5 4 3 2 1 0 -1 -2 -1 -1 -0 -0 1 2 3 4 3 2 1 0 0 0 0 -1 -1 -1 -1 -1 -1 -1 -1 -1 -1
5 4 4 4 4 4 4 5 5 6 6 6 6 7 7 6 6 6 6 6 5 4 4 4 4 4 4 4 4 4 4 4 5 5 5 5 5 4 3 2 1 -0 -2 -3 -2 -1 -0 -0 1 3 4 5 3 2 0 -0 -0 0 -0 -1 -1 -1 -1 -1 -2 -2 -1 -1 -1
4 4 3 4 4 4 5 6 6 6 6 6 7 7 6 6 6 6 6 6 5 4 3 4 5 5 5 5 6 5 5 6 6 6 5 5 4 3 2 2 0 -2 -3 -3 -2 -1 -0 1 3 4 6 6 3 1 -0 -1 -0 -0 -0 -1 -1 -1 -1 -1 -2 -2 -1 -1 -1
4 4 4 4 5 5 6 7 7 6 6 6 7 6 6 6 6 6 6 6 5 4 5 6 6 5 6 8 7 7 7 8 7 6 5 4 3 2 1 0 -2 -3 -4 -3 -2 -0 1 3 4 6 6 5 1 -1 -1 -1 -1 -0 -0 -0 -1 -1 -1 -1 -1 -1 -1 -1 -1
4 5 5 6 6 6 6 7 6 6 6 6 6 6 6 6 6 6 6 7 6 6 6 7 6 6 7 8 7 7 7 7 6 4 3 3 2 1 -0 -2 -3 -4 -3 -2 -0 2 3 5 6 7 6 3 -0 -1 -1 -1 -0 -0 0 0 -0 -1 -1 -0 -0 -1 -2 -1 -1
5 5 6 6 6 6 5 4 4 4 5 5 5 5 5 5 5 5 6 6 5 6 6 6 4 5 6 7 6 5 5 5 3 2 1 1 -0 -1 -2 -4 -4 -3 -1 0 2 4 6 7 7 6 3 0 -1 -2 -1 0 0 0 0 1 0 -0 -1 -0 -0 -1 -2 -2 -1
5 5 4 4 3 3 2 1 2 2 3 3 2 2 2 2 2 3 4 4 4 4 4 3 3 3 4 4 3 3 3 3 2 1 -0 -1 -1 -2 -3 -4 -3 -2 0 2 4 6 7 8 6 4 1 -1 -1 -1 -0 1 1 1 1 1 1 0 -0 -1 -0 -1 -2 -2 -2
Height
5737 5738 5739 5740 5741 5742 5743 5744 5746 5747 5748 5749 5750 5752 5753 5755 5756 5758 5759 5761 5762 5763 5763 5763 5764 5764 5764 5765 5766 5767 5768 5769 5770 5772 5773 5774 5775 5776 5777 5778 5778 5779 5780 5781 5781 5782 5783 5783 5783 5784 5784 5785 5785 5786 5786 5786 5786 5787 5787 5787 5787 5788 5788 5788 5788 5788 5789 5789 5789
5733 5735 5736 5737 5738 5739 5740 5741 5742 5743 5744 5746 5747 5748 5750 5752 5753 5755 5756 5758 5758 5759 5760 5760 5760 5760 5761 5762 5763 5764 5765 5767 5768 5769 5770 5772 5773 5773 5774 5775 5776 5777 5777 5778 5778 5779 5780 5781 5781 5782 5782 5783 5783 5783 5783 5784 5784 5784 5784 5785 5785 5785 5785 5786 5786 5786 5787 5787 5787
5730 5731 5732 5733 5734 5735 5737 5738 5739 5740 5742 5743 5744 5745 5747 5748 5750 5751 5753 5754 5755 5755 5756 5756 5757 5757 5758 5759 5760 5762 5763 5764 5765 5767 5768 5769 5770 5771 5772 5772 5773 5774 5774 5775 5776 5777 5777 5778 5778 5779 5779 5780 5780 5781 5781 5781 5782 5782 5782 5782 5783 5783 5783 5783 5783 5784 5784 5784 5784
5726 5728 5728 5730 5731 5732 5733 5735 5736 5738 5738 5739 5741 5742 5743 5745 5746 5748 5749 5750 5751 5752 5752 5753 5753 5754 5755 5756 5758 5759 5760 5761 5763 5764 5765 5766 5767 5768 5769 5769 5770 5771 5772 5773 5773 5774 5775 5775 5776 5777 5777 5778 5778 5778 5778 5779 5779 5779 5780 5780 5780 5780 5781 5781 5781 5782 5782 5782 5782
5723 5724 5725 5726 5728 5729 5730 5732 5733 5734 5735 5736 5737 5738 5739 5741 5743 5744 5745 5747 5748 5748 5749 5750 5750 5751 5752 5753 5755 5756 5757 5758 5760 5761 5763 5763 5764 5765 5766 5767 5767 5768 5769 5770 5770 5771 5772 5773 5773 5774 5774 5775 5775 5776 5776 5776 5777 5777 5777 5778 5778 5778 5778 5778 5779 5779 5779 5780 5780
5719 5720 5722 5723 5724 5725 5726 5728 5728 5730 5731 5732 5733 5734 5736 5738 5739 5741 5742 5743 5744 5745 5746 5746 5747 5748 5749 5750 5752 5753 5754 5756 5757 5758 5760 5761 5762 5762 5763 5763 5764 5765 5766 5767 5768 5768 5769 5770 5770 5771 5772 5772 5773 5773 5773 5773 5774 5774 5775 5775 5775 5776 5776 5776 5776 5777 5777 5777 5777
5715 5716 5718 5718 5720 5721 5722 5723 5724 5726 5727 5728 5729 5731 5733 5734 5736 5738 5739 5740 5741 5742 5742 5743 5744 5745 5746 5748 5749 5750 5751 5753 5754 5755 5757 5758 5758 5759 5760 5761 5761 5762 5763 5764 5765 5766 5766 5767 5768 5768 5769 5769 5770 5770 5771 5771 5771 5772 5772 5773 5773 5773 5773 5773 5774 5774 5774 5774 5775
5711 5712 5713 5714 5716 5717 5718 5719 5721 5722 5723 5724 5726 5728 5729 5731 5733 5734 5735 5736 5737 5738 5738 5739 5741 5742 5743 5744 5746 5747 5748 5750 5751 5752 5753 5754 5755 5756 5757 5758 5758 5759 5760 5761 5762 5763 5763 5764 5765 5765 5766 5767 5767 5768 5768 5768 5769 5769 5769 5770 5770 5770 5771 5771 5771 5772 5772 5772 5772
5706 5708 5709 5710 5711 5713 5714 5715 5717 5718 5720 5721 5723 5724 5726 5727 5729 5730 5731 5732 5733 5734 5735 5736 5737 5738 5740 5741 5743 5744 5745 5747 5748 5749 5750 5751 5752 5753 5753 5754 5755 5756 5757 5758 5759 5759 5760 5761 5762 5763 5763 5763 5764 5764 5765 5766 5766 5766 5767 5767 5768 5768 5768 5768 5768 5769 5769 5769 5770
5702 5704 5705 5706 5708 5709 5710 5711 5713 5714 5716 5718 5719 5720 5722 5723 5725 5726 5727 5728 5729 5730 5731 5733 5734 5735 5736 5738 5739 5740 5742 5743 5744 5746 5747 5748 5748 5749 5750 5751 5752 5753 5754 5755 5756 5756 5757 5758 5759 5759 5760 5761 5761 5762 5762 5763 5763 5763 5764 5764 5765 5765 5765 5766 5766 5766 5767 5767 5767
5699 5700 5701 5703 5704 5705 5706 5708 5709 5711 5712 5714 5715 5716 5718 5719 5721 5722 5723 5724 5726 5727 5728 5729 5730 5732 5733 5734 5736 5737 5738 5740 5741 5742 5743 5744 5745 5746 5747 5748 5749 5750 5751 5752 5753 5753 5754 5755 5756 5756 5757 5758 5758 5758 5759 5760 5760 5761 5761 5762 5762 5763 5763 5763 5763 5764 5764 5764 5764
5695 5696 5697 5698 5700 5701 5702 5704 5705 5707 5708 5709 5711 5712 5713 5715 5717 5718 5719 5721 5722 5723 5724 5726 5727 5728 5730 5731 5732 5734 5735 5736 5738 5739 5740 5741 5742 5743 5744 5745 5746 5747 5748 5748 5749 5750 5751 5752 5752 5753 5754 5754 5755 5755 5756 5757 5757 5758 5758 5759 5759 5760 5760 5760 5761 5761 5761 5762 5762
5690 5692 5693 5694 5695 5697 5698 5700 5701 5703 5704 5706 5707 5708 5710 5712 5713 5714 5716 5717 5718 5720 5721 5722 5723 5725 5726 5728 5729 5730 5732 5733 5734 5736 5737 5738 5738 5739 5740 5742 5743 5743 5744 5745 5746 5747 5748 5748 5749 5750 5750 5751 5752 5752 5753 5753 5754 5755 5755 5756 5756 5757 5757 5758 5758 5758 5759 5759 5759
5686 5687 5688 5690 5691 5693 5694 5696 5697 5699 5700 5702 5703 5705 5706 5708 5709 5711 5712 5713 5715 5716 5717 5718 5720 5721 5723 5724 5726 5727 5728 5730 5731 5732 5733 5734 5735 5736 5737 5738 5739 5740 5741 5742 5743 5743 5744 5745 5746 5746 5747 5748 5748 5749 5749 5750 5751 5752 5752 5753 5753 5753 5754 5754 5755 5755 5756 5756 5757
5681 5683 5684 5686 5687 5688 5690 5692 5693 5695 5697 5698 5699 5701 5702 5704 5705 5707 5709 5710 5711 5712 5713 5715 5716 5718 5719 5721 5722 5723 5725 5726 5728 5729 5730 5731 5732 5733 5734 5735 5736 5737 5738 5739 5739 5740 5741 5741 5742 5743 5743 5744 5745 5746 5746 5747 5748 5748 5749 5749 5750 5750 5751 5751 5752 5752 5753 5753 5753
5676 5678 5680 5682 5683 5685 5687 5688 5690 5691 5693 5694 5696 5697 5698 5700 5702 5703 5705 5706 5708 5709 5710 5711 5713 5714 5716 5718 5719 5720 5721 5723 5724 5725 5726 5728 5728 5730 5731 5732 5733 5734 5735 5735 5736 5737 5737 5738 5738 5739 5740 5741 5741 5742 5743 5744 5744 5745 5745 5746 5747 5747 5748 5748 5748 5749 5749 5750 5750
5672 5674 5676 5678 5679 5681 5683 5684 5686 5688 5689 5690 5692 5693 5695 5696 5698 5700 5701 5703 5704 5705 5707 5708 5710 5711 5713 5714 5715 5717 5718 5719 5721 5722 5723 5724 5725 5727 5728 5728 5729 5730 5731 5732 5732 5733 5733 5734 5735 5735 5736 5737 5738 5739 5740 5740 5741 5742 5742 5743 5743 5744 5744 5745 5745 5745 5746 5746 5747
5667 5669 5672 5674 5676 5678 5679 5681 5683 5684 5685 5687 5688 5690 5691 5693 5695 5696 5698 5699 5700 5702 5703 5705 5706 5708 5709 5711 5712 5713 5715 5716 5718 5719 5720 5721 5722 5723 5724 5725 5726 5726 5727 5728 5728 5729 5730 5730 5731 5732 5733 5734 5735 5736 5736 5737 5738 5738 5739 5739 5740 5740 5741 5741 5742 5742 5743 5743 5743
5663 5665 5668 5670 5672 5674 5676 5678 5679 5681 5682 5683 5685 5686 5688 5689 5691 5693 5694 5696 5697 5698 5700 5701 5703 5704 5706 5707 5709 5710 5712 5713 5714 5716 5717 5718 5718 5719 5720 5721 5722 5723 5723 5724 5725 5725 5726 5727 5728 5728 5729 5730 5731 5732 5733 5734 5734 5735 5735 5736 5736 5737 5737 5738 5738 5739 5739 5740 5740
5659 5661 5663 5666 5668 5670 5672 5674 5675 5677 5678 5680 5681 5683 5684 5686 5688 5689 5691 5692 5693 5695 5696 5698 5699 5701 5703 5704 5705 5707 5708 5710 5711 5712 5713 5713 5714 5715 5716 5717 5718 5718 5719 5720 5721 5722 5722 5723 5724 5725 5726 5727 5728 5729 5729 5730 5731 5731 5732 5732 5733 5733 5734 5734 5735 5735 5736 5736 5737
5655 5657 5659 5662 5664 5666 5668 5670 5672 5673 5674 5676 5677 5679 5680 5682 5684 5686 5687 5689 5690 5691 5692 5694 5695 5697 5699 5700 5702 5703 5704 5706 5707 5708 5708 5709 5710 5711 5712 5713 5714 5714 5715 5716 5717 5718 5718 5719 5720 5721 5722 5723 5724 5725 5726 5727 5727 5728 5728 5729 5729 5730 5730 5731 5731 5732 5733 5733 5733
5651 5653 5655 5657 5659 5662 5664 5666 5668 5669 5670 5672 5673 5675 5677 5678 5680 5682 5683 5685 5686 5687 5688 5690 5692 5693 5695 5697 5698 5699 5701 5702 5703 5703 5704 5706 5707 5707 5708 5709 5710 5710 5711 5712 5713 5714 5715 5716 5717 5718 5719 5720 5721 5721 5722 5723 5723 5724 5724 5725 5726 5726 5727 5727 5728 5728 5729 5729 5730
5647 5649 5651 5653 5654 5657 5659 5661 5663 5665 5666 5668 5669 5671 5673 5674 5676 5678 5679 5681 5682 5683 5684 5686 5688 5690 5691 5693 5694 5695 5696 5698 5698 5699 5701 5702 5703 5703 5704 5705 5706 5707 5708 5708 5710 5711 5712 5713 5713 5714 5715 5716 5717 5718 5718 5719 5719 5720 5721 5721 5722 5723 5723 5724 5724 5725 5725 5726 5726
5643 5644 5646 5648 5650 5652 5654 5657 5658 5660 5662 5664 5665 5667 5669 5670 5672 5674 5675 5676 5678 5679 5681 5682 5684 5685 5687 5688 5689 5691 5692 5693 5694 5696 5697 5698 5698 5699 5700 5701 5702 5703 5704 5705 5706 5707 5708 5709 5709 5710 5711 5712 5713 5713 5714 5715 5715 5716 5717 5718 5718 5719 5719 5720 5720 5721 5721 5722 5723
5638 5640 5641 5643 5646 5648 5650 5653 5654 5657 5658 5660 5662 5663 5665 5666 5668 5669 5671 5673 5674 5675 5677 5678 5680 5681 5683 5684 5685 5686 5688 5689 5691 5692 5693 5694 5695 5696 5697 5698 5699 5700 5700 5702 5703 5703 5704 5705 5706 5706 5707 5708 5709 5709 5710 5711 5712 5712 5713 5714 5714 5715 5716 5716 5717 5717 5718 5718 5718
5633 5635 5637 5639 5641 5644 5646 5648 5651 5653 5654 5656 5658 5659 5661 5662 5664 5666 5668 5669 5670 5671 5673 5674 5676 5677 5678 5679 5681 5683 5684 5685 5687 5688 5689 5690 5691 5692 5693 5694 5695 5696 5697 5698 5699 5699 5700 5701 5702 5702 5703 5704 5704 5705 5706 5707 5708 5708 5709 5710 5711 5711 5712 5713 5713 5713 5713 5714 5714
5629 5631 5633 5635 5637 5640 5642 5644 5647 5648 5650 5652 5653 5655 5657 5658 5660 5662 5663 5665 5666 5667 5668 5670 5671 5673 5674 5676 5677 5679 5680 5682 5683 5684 5686 5687 5688 5689 5690 5691 5692 5693 5693 5694 5695 5696 5696 5697 5698 5698 5699 5700 5700 5701 5702 5703 5703 5704 5705 5706 5707 5708 5708 5708 5709 5709 5709 5710 5710
5624 5626 5628 5631 5633 5635 5638 5640 5642 5644 5646 5647 5649 5651 5653 5654 5656 5658 5659 5660 5662 5663 5664 5666 5667 5669 5670 5672 5673 5675 5677 5678 5679 5681 5682 5683 5684 5685 5686 5687 5688 5689 5690 5690 5691 5691 5692 5693 5693 5694 5695 5695 5696 5697 5698 5698 5699 5700 5701 5702 5703 5703 5704 5704 5704 5705 5705 5706 5706
5620 5622 5624 5627 5629 5631 5633 5636 5638 5639 5641 5643 5645 5647 5648 5650 5652 5653 5655 5656 5658 5659 5660 5662 5663 5665 5667 5668 5670 5672 5673 5674 5676 5677 5678 5679 5680 5681 5682 5683 5684 5685 5686 5686 5687 5687 5688 5688 5689 5690 5691 5691 5692 5693 5693 5694 5695 5696 5697 5698 5699 5699 5700 5700 5700 5701 5701 5702 5702
5615 5618 5620 5622 5624 5627 5629 5631 5633 5635 5637 5639 5641 5642 5644 5646 5648 5649 5650 5652 5653 5655 5656 5658 5660 5662 5663 5665 5666 5668 5669 5671 5672 5673 5674 5675 5676 5677 5678 5679 5680 5681 5681 5682 5683 5683 5683 5684 5685 5686 5686 5687 5688 5688 5689 5690 5691 5692 5693 5694 5694 5695 5695 5696 5696 5697 5697 5697 5698
5611 5613 5615 5617 5620 5622 5624 5627 5629 5631 5633 5634 5636 5638 5640 5642 5643 5645 5646 5648 5649 5651 5653 5654 5656 5658 5659 5661 5663 5664 5665 5667 5668 5669 5670 5672 5673 5673 5674 5675 5676 5676 5677 5678 5678 5679 5679 5680 5681 5682 5682 5683 5684 5684 5685 5686 5687 5688 5689 5689 5690 5691 5691 5692 5692 5693 5693 5693 5693
5606 5608 5611 5613 5615 5618 5620 5622 5624 5626 5628 5630 5632 5634 5636 5638 5639 5641 5643 5644 5645 5647 5648 5650 5652 5654 5655 5657 5658 5660 5661 5663 5664 5665 5666 5668 5668 5669 5670 5671 5671 5672 5673 5673 5674 5674 5675 5676 5677 5677 5678 5679 5680 5680 5681 5682 5683 5684 5684 5685 5686 5686 5687 5687 5688 5688 5688 5689 5689
5602 5604 5606 5608 5611 5613 5615 5618 5619 5621 5623 5626 5628 5630 5632 5633 5635 5637 5638 5639 5641 5643 5644 5646 5648 5650 5652 5653 5655 5656 5658 5659 5660 5661 5662 5663 5664 5664 5665 5666 5667 5667 5668 5668 5669 5670 5671 5672 5672 5673 5674 5675 5676 5676 5677 5678 5679 5679 5680 5681 5681 5682 5682 5683 5683 5684 5684 5684 5685
5597 5599 5602 5604 5606 5608 5611 5613 5615 5617 5619 5621 5623 5625 5627 5629 5630 5632 5633 5635 5637 5639 5641 5643 5644 5646 5648 5649 5651 5652 5653 5655 5656 5657 5658 5658 5659 5660 5661 5661 5662 5662 5663 5664 5665 5665 5666 5667 5668 5669 5670 5671 5672 5672 5673 5674 5675 5675 5676 5676 5677 5677 5678 5678 5679 5679 5679 5680 5680
5593 5595 5598 5599 5602 5604 5606 5609 5611 5613 5615 5617 5619 5621 5623 5625 5626 5628 5630 5632 5633 5635 5637 5638 5640 5642 5643 5645 5646 5648 5649 5650 5651 5652 5653 5654 5654 5655 5656 5656 5657 5658 5658 5659 5660 5661 5662 5663 5664 5665 5666 5667 5668 5668 5669 5670 5670 5671 5672 5672 5673 5673 5673 5674 5674 5675 5675 5675 5676
5589 5591 5593 5595 5598 5600 5602 5604 5607 5609 5611 5613 5614 5617 5619 5621 5623 5624 5626 5628 5630 5632 5633 5634 5636 5638 5639 5640 5642 5643 5644 5645 5647 5648 5648 5649 5650 5650 5651 5652 5652 5653 5653 5654 5656 5657 5658 5659 5660 5662 5663 5663 5663 5664 5664 5665 5666 5667 5667 5668 5668 5668 5669 5669 5670 5670 5670 5671 5671
5585 5587 5589 5591 5593 5596 5598 5600 5603 5604 5607 5608 5610 5613 5615 5617 5619 5620 5622 5624 5626 5628 5629 5630 5633 5634 5635 5636 5638 5639 5640 5641 5642 5643 5643 5644 5645 5645 5646 5647 5647 5648 5649 5650 5652 5653 5654 5655 5657 5658 5658 5659 5659 5659 5660 5661 5662 5662 5663 5663 5663 5664 5664 5665 5665 5666 5666 5666 5667
5581 5583 5585 5587 5589 5592 5594 5596 5598 5600 5602 5604 5606 5608 5611 5613 5615 5616 5618 5620 5622 5623 5625 5627 5628 5630 5631 5632 5633 5634 5635 5636 5637 5638 5638 5639 5639 5640 5641 5642 5642 5643 5644 5646 5648 5649 5650 5652 5653 5654 5654 5654 5654 5655 5656 5657 5657 5658 5658 5658 5659 5659 5660 5660 5661 5661 5662 5662 5662
5577 5579 5581 5583 5585 5587 5589 5591 5593 5595 5598 5600 5602 5604 5606 5608 5610 5612 5614 5616 5617 5619 5620 5622 5623 5624 5626 5627 5628 5629 5629 5630 5631 5632 5633 5633 5634 5635 5636 5637 5638 5639 5641 5643 5644 5645 5647 5648 5649 5649 5649 5649 5650 5650 5651 5652 5653 5653 5653 5654 5655 5655 5655 5656 5656 5657 5657 5657 5658
5573 5575 5577 5578 5580 5582 5584 5586 5588 5590 5593 5595 5597 5599 5601 5603 5605 5607 5608 5610 5612 5613 5615 5616 5618 5619 5620 5621 5623 5623 5624 5625 5626 5627 5628 5628 5629 5630 5631 5633 5633 5635 5637 5639 5640 5642 5643 5644 5644 5645 5645 5644 5645 5646 5647 5648 5648 5649 5649 5650 5650 5651 5651 5651 5651 5652 5652 5652 5653
5568 5570 5572 5573 5575 5577 5579 5581 5583 5585 5588 5590 5592 5593 5595 5597 5599 5601 5603 5604 5606 5607 5609 5610 5612 5613 5614 5616 5617 5618 5619 5620 5621 5622 5623 5624 5625 5626 5627 5628 5630 5632 5633 5635 5637 5638 5638 5639 5640 5640 5640 5640 5641 5642 5642 5643 5644 5644 5645 5645 5646 5646 5646 5646 5647 5647 5647 5648 5648